2024-173H

Last updated on Fri Oct 25 2024 00:02:04 GMT+0000 (Coordinated Universal Time)

1 61234U 24173H 24298.57103405 .00067150 00000+0 24367-2 0 9995 2 61234 97.4031 11.1084 0012474 175.0851 185.0513 15.27996961 4598
UTC large
Height (km)
Speed (km/s)
/
Latitude / Longitude
Inclination (degrees)
Orbital Period (minutes)
Azimuth
Elevation
Range (km)
Doppler Factor

Next 0 passes for location: London (51.5072 / 0.1276)

Sorry there are no passes over London.